Year,Month,Day,Hour,Minute,Value (Times are PST for windgust in km/hr)
2010,08,31,00,00,6.40
2010,08,31,00,01,4.80
2010,08,31,00,02,3.20
2010,08,31,00,03,4.80
2010,08,31,00,04,6.40
2010,08,31,00,05,6.40
2010,08,31,00,06,9.60
2010,08,31,00,07,6.40
2010,08,31,00,08,6.40
2010,08,31,00,09,4.80
2010,08,31,00,10,6.40
2010,08,31,00,11,3.20
2010,08,31,00,12,4.80
2010,08,31,00,13,8.10
2010,08,31,00,14,8.10
2010,08,31,00,15,9.60
2010,08,31,00,16,8.10
2010,08,31,00,17,8.10
2010,08,31,00,18,4.80
2010,08,31,00,19,9.60
2010,08,31,00,20,8.10
2010,08,31,00,21,11.30
2010,08,31,00,22,8.10
2010,08,31,00,23,9.60
2010,08,31,00,24,8.10
2010,08,31,00,25,8.10
2010,08,31,00,26,9.60
2010,08,31,00,27,8.10
2010,08,31,00,28,6.40
2010,08,31,00,29,8.10
2010,08,31,00,30,16.10
2010,08,31,00,31,17.70
2010,08,31,00,32,17.70
2010,08,31,00,33,17.70
2010,08,31,00,34,17.70
2010,08,31,00,35,12.90
2010,08,31,00,36,11.30
2010,08,31,00,37,16.10
2010,08,31,00,38,17.70
2010,08,31,00,39,16.10
2010,08,31,00,40,14.50
2010,08,31,00,41,9.60
2010,08,31,00,42,8.10
2010,08,31,00,43,8.10
2010,08,31,00,44,9.60
2010,08,31,00,45,8.10
2010,08,31,00,46,3.20
2010,08,31,00,47,4.80
2010,08,31,00,48,3.20
2010,08,31,00,49,4.80
2010,08,31,00,50,3.20
2010,08,31,00,51,3.20
2010,08,31,00,52,6.40
2010,08,31,00,53,6.40
2010,08,31,00,54,3.20
2010,08,31,00,55,6.40
2010,08,31,00,56,9.60
2010,08,31,00,57,3.20
2010,08,31,00,58,3.20
2010,08,31,00,59,3.20
2010,08,31,01,01,1.60
2010,08,31,01,02,1.60
2010,08,31,01,04,3.20
2010,08,31,01,05,6.40
2010,08,31,01,06,8.10
2010,08,31,01,07,11.30
2010,08,31,01,08,12.90
2010,08,31,01,09,11.30
2010,08,31,01,10,9.60
2010,08,31,01,11,6.40
2010,08,31,01,12,6.40
2010,08,31,01,13,4.80
2010,08,31,01,14,6.40
2010,08,31,01,15,8.10
2010,08,31,01,16,8.10
2010,08,31,01,17,6.40
2010,08,31,01,18,8.10
2010,08,31,01,19,4.80
2010,08,31,01,20,6.40
2010,08,31,01,21,3.20
2010,08,31,01,22,3.20
2010,08,31,01,24,1.60
2010,08,31,01,27,1.60
2010,08,31,01,28,1.60
2010,08,31,01,29,1.60
2010,08,31,01,30,1.60
2010,08,31,01,31,4.80
2010,08,31,01,32,3.20
2010,08,31,01,33,3.20
2010,08,31,01,34,3.20
2010,08,31,01,36,1.60
2010,08,31,01,41,1.60
2010,08,31,01,42,4.80
2010,08,31,01,43,4.80
2010,08,31,01,44,4.80
2010,08,31,01,45,4.80
2010,08,31,01,46,6.40
2010,08,31,01,47,8.10
2010,08,31,01,48,4.80
2010,08,31,01,49,3.20
2010,08,31,01,50,1.60
2010,08,31,01,51,3.20
2010,08,31,01,52,1.60
2010,08,31,01,53,3.20
2010,08,31,01,56,1.60
2010,08,31,01,58,4.80
2010,08,31,01,59,3.20
2010,08,31,02,04,1.60
2010,08,31,02,07,3.20
2010,08,31,02,08,1.60
2010,08,31,02,10,1.60
2010,08,31,02,11,1.60
2010,08,31,02,12,1.60
2010,08,31,02,13,3.20
2010,08,31,02,16,1.60
2010,08,31,02,17,1.60
2010,08,31,02,19,1.60
2010,08,31,02,21,3.20
2010,08,31,02,22,1.60
2010,08,31,02,23,3.20
2010,08,31,02,24,1.60
2010,08,31,02,25,1.60
2010,08,31,02,26,3.20
2010,08,31,02,28,1.60
2010,08,31,02,32,1.60
2010,08,31,02,38,1.60
2010,08,31,02,42,1.60
2010,08,31,02,46,1.60
2010,08,31,02,49,1.60
2010,08,31,02,51,1.60
2010,08,31,02,52,1.60
2010,08,31,02,53,4.80
2010,08,31,02,54,4.80
2010,08,31,02,55,3.20
2010,08,31,02,56,3.20
2010,08,31,02,57,3.20
2010,08,31,02,58,4.80
2010,08,31,02,59,3.20
2010,08,31,03,00,4.80
2010,08,31,03,01,6.40
2010,08,31,03,02,6.40
2010,08,31,03,03,4.80
2010,08,31,03,04,6.40
2010,08,31,03,05,6.40
2010,08,31,03,06,6.40
2010,08,31,03,07,8.10
2010,08,31,03,08,8.10
2010,08,31,03,09,8.10
2010,08,31,03,10,8.10
2010,08,31,03,11,4.80
2010,08,31,03,12,8.10
2010,08,31,03,13,6.40
2010,08,31,03,14,3.20
2010,08,31,03,15,4.80
2010,08,31,03,16,4.80
2010,08,31,03,17,6.40
2010,08,31,03,18,3.20
2010,08,31,03,19,4.80
2010,08,31,03,20,3.20
2010,08,31,03,21,3.20
2010,08,31,03,22,1.60
2010,08,31,03,23,6.40
2010,08,31,03,24,11.30
2010,08,31,03,25,9.60
2010,08,31,03,26,9.60
2010,08,31,03,27,11.30
2010,08,31,03,28,6.40
2010,08,31,03,29,4.80
2010,08,31,03,30,4.80
2010,08,31,03,31,9.60
2010,08,31,03,32,9.60
2010,08,31,03,33,6.40
2010,08,31,03,34,8.10
2010,08,31,03,35,3.20
2010,08,31,03,36,6.40
2010,08,31,03,37,4.80
2010,08,31,03,38,3.20
2010,08,31,03,39,8.10
2010,08,31,03,40,11.30
2010,08,31,03,41,8.10
2010,08,31,03,42,11.30
2010,08,31,03,43,11.30
2010,08,31,03,44,14.50
2010,08,31,03,45,8.10
2010,08,31,03,46,9.60
2010,08,31,03,47,8.10
2010,08,31,03,48,9.60
2010,08,31,03,49,6.40
2010,08,31,03,50,4.80
2010,08,31,03,51,8.10
2010,08,31,03,52,1.60
2010,08,31,03,53,3.20
2010,08,31,03,54,4.80
2010,08,31,03,55,6.40
2010,08,31,03,56,3.20
2010,08,31,03,57,8.10
2010,08,31,03,58,3.20
2010,08,31,03,59,1.60
2010,08,31,04,00,6.40
2010,08,31,04,01,1.60
2010,08,31,04,02,4.80
2010,08,31,04,03,3.20
2010,08,31,04,04,4.80
2010,08,31,04,05,4.80
2010,08,31,04,06,6.40
2010,08,31,04,07,3.20
2010,08,31,04,08,1.60
2010,08,31,04,09,3.20
2010,08,31,04,11,3.20
2010,08,31,04,12,6.40
2010,08,31,04,13,4.80
2010,08,31,04,14,3.20
2010,08,31,04,15,1.60
2010,08,31,04,16,3.20
2010,08,31,04,17,6.40
2010,08,31,04,18,1.60
2010,08,31,04,19,1.60
2010,08,31,04,20,1.60
2010,08,31,04,21,1.60
2010,08,31,04,22,1.60
2010,08,31,04,23,4.80
2010,08,31,04,24,3.20
2010,08,31,04,25,1.60
2010,08,31,04,26,4.80
2010,08,31,04,27,4.80
2010,08,31,04,28,4.80
2010,08,31,04,29,8.10
2010,08,31,04,30,9.60
2010,08,31,04,31,6.40
2010,08,31,04,32,8.10
2010,08,31,04,33,6.40
2010,08,31,04,34,12.90
2010,08,31,04,35,9.60
2010,08,31,04,36,16.10
2010,08,31,04,37,9.60
2010,08,31,04,38,9.60
2010,08,31,04,39,14.50
2010,08,31,04,40,14.50
2010,08,31,04,41,11.30
2010,08,31,04,42,17.70
2010,08,31,04,43,17.70
2010,08,31,04,44,6.40
2010,08,31,04,45,6.40
2010,08,31,04,46,11.30
2010,08,31,04,47,14.50
2010,08,31,04,48,14.50
2010,08,31,04,49,4.80
2010,08,31,04,50,14.50
2010,08,31,04,51,8.10
2010,08,31,04,52,6.40
2010,08,31,04,53,6.40
2010,08,31,04,54,6.40
2010,08,31,04,55,8.10
2010,08,31,04,56,8.10
2010,08,31,04,57,9.60
2010,08,31,04,58,9.60
2010,08,31,04,59,8.10
2010,08,31,05,00,6.40
2010,08,31,05,01,6.40
2010,08,31,05,02,4.80
2010,08,31,05,03,8.10
2010,08,31,05,04,8.10
2010,08,31,05,05,9.60
2010,08,31,05,06,9.60
2010,08,31,05,07,6.40
2010,08,31,05,08,4.80
2010,08,31,05,09,9.60
2010,08,31,05,10,4.80
2010,08,31,05,11,6.40
2010,08,31,05,12,6.40
2010,08,31,05,13,6.40
2010,08,31,05,14,4.80
2010,08,31,05,15,6.40
2010,08,31,05,16,8.10
2010,08,31,05,17,8.10
2010,08,31,05,18,8.10
2010,08,31,05,19,4.80
2010,08,31,05,20,6.40
2010,08,31,05,21,6.40
2010,08,31,05,22,6.40
2010,08,31,05,23,3.20
2010,08,31,05,24,4.80
2010,08,31,05,25,4.80
2010,08,31,05,26,8.10
2010,08,31,05,27,9.60
2010,08,31,05,28,12.90
2010,08,31,05,29,9.60
2010,08,31,05,30,9.60
2010,08,31,05,31,8.10
2010,08,31,05,32,8.10
2010,08,31,05,33,8.10
2010,08,31,05,34,14.50
2010,08,31,05,35,20.90
2010,08,31,05,36,11.30
2010,08,31,05,37,6.40
2010,08,31,05,38,9.60
2010,08,31,05,39,11.30
2010,08,31,05,40,12.90
2010,08,31,05,41,17.70
2010,08,31,05,42,17.70
2010,08,31,05,43,8.10
2010,08,31,05,44,16.10
2010,08,31,05,45,14.50
2010,08,31,05,46,8.10
2010,08,31,05,47,16.10
2010,08,31,05,48,25.70
2010,08,31,05,49,27.40
2010,08,31,05,50,22.50
2010,08,31,05,51,14.50
2010,08,31,05,52,8.10
2010,08,31,05,53,17.70
2010,08,31,05,54,22.50
2010,08,31,05,55,16.10
2010,08,31,05,56,16.10
2010,08,31,05,57,20.90
2010,08,31,05,58,16.10
2010,08,31,05,59,16.10
2010,08,31,06,00,16.10
2010,08,31,06,01,12.90
2010,08,31,06,02,20.90
2010,08,31,06,03,25.70
2010,08,31,06,04,22.50
2010,08,31,06,05,19.30
2010,08,31,06,06,24.20
2010,08,31,06,07,17.70
2010,08,31,06,08,19.30
2010,08,31,06,09,17.70
2010,08,31,06,10,16.10
2010,08,31,06,11,17.70
2010,08,31,06,12,24.20
2010,08,31,06,13,16.10
2010,08,31,06,14,27.40
2010,08,31,06,15,19.30
2010,08,31,06,16,16.10
2010,08,31,06,17,16.10
2010,08,31,06,18,9.60
2010,08,31,06,19,22.50
2010,08,31,06,20,20.90
2010,08,31,06,21,17.70
2010,08,31,06,22,16.10
2010,08,31,06,23,19.30
2010,08,31,06,24,11.30
2010,08,31,06,25,16.10
2010,08,31,06,26,16.10
2010,08,31,06,27,16.10
2010,08,31,06,28,16.10
2010,08,31,06,29,17.70
2010,08,31,06,30,19.30
2010,08,31,06,31,14.50
2010,08,31,06,32,22.50
2010,08,31,06,33,20.90
2010,08,31,06,34,24.20
2010,08,31,06,35,11.30
2010,08,31,06,36,19.30
2010,08,31,06,37,16.10
2010,08,31,06,38,9.60
2010,08,31,06,39,17.70
2010,08,31,06,40,16.10
2010,08,31,06,41,20.90
2010,08,31,06,42,19.30
2010,08,31,06,43,24.20
2010,08,31,06,44,16.10
2010,08,31,06,45,20.90
2010,08,31,06,46,20.90
2010,08,31,06,47,17.70
2010,08,31,06,48,11.30
2010,08,31,06,49,11.30
2010,08,31,06,50,22.50
2010,08,31,06,51,17.70
2010,08,31,06,52,17.70
2010,08,31,06,53,24.20
2010,08,31,06,54,17.70
2010,08,31,06,55,20.90
2010,08,31,06,56,16.10
2010,08,31,06,57,20.90
2010,08,31,06,58,19.30
2010,08,31,06,59,17.70
2010,08,31,07,00,22.50
2010,08,31,07,01,17.70
2010,08,31,07,02,17.70
2010,08,31,07,03,20.90
2010,08,31,07,04,24.20
2010,08,31,07,05,29.00
2010,08,31,07,06,22.50
2010,08,31,07,07,19.30
2010,08,31,07,08,25.70
2010,08,31,07,09,22.50
2010,08,31,07,10,14.50
2010,08,31,07,11,14.50
2010,08,31,07,12,17.70
2010,08,31,07,13,19.30
2010,08,31,07,14,12.90
2010,08,31,07,15,19.30
2010,08,31,07,16,12.90
2010,08,31,07,17,20.90
2010,08,31,07,18,17.70
2010,08,31,07,19,17.70
2010,08,31,07,20,22.50
2010,08,31,07,21,25.70
2010,08,31,07,22,19.30
2010,08,31,07,23,17.70
2010,08,31,07,24,17.70
2010,08,31,07,25,20.90
2010,08,31,07,26,30.60
2010,08,31,07,27,17.70
2010,08,31,07,28,19.30
2010,08,31,07,29,20.90
2010,08,31,07,30,20.90
2010,08,31,07,31,17.70
2010,08,31,07,32,19.30
2010,08,31,07,33,20.90
2010,08,31,07,34,14.50
2010,08,31,07,35,17.70
2010,08,31,07,36,19.30
2010,08,31,07,37,19.30
2010,08,31,07,38,22.50
2010,08,31,07,39,20.90
2010,08,31,07,40,17.70
2010,08,31,07,41,17.70
2010,08,31,07,42,11.30
2010,08,31,07,43,19.30
2010,08,31,07,44,19.30
2010,08,31,07,45,14.50
2010,08,31,07,46,19.30
2010,08,31,07,47,16.10
2010,08,31,07,48,16.10
2010,08,31,07,49,17.70
2010,08,31,07,50,12.90
2010,08,31,07,51,14.50
2010,08,31,07,52,17.70
2010,08,31,07,53,16.10
2010,08,31,07,54,16.10
2010,08,31,07,55,19.30
2010,08,31,07,56,17.70
2010,08,31,07,57,24.20
2010,08,31,07,58,20.90
2010,08,31,07,59,20.90
2010,08,31,08,00,24.20
2010,08,31,08,01,19.30
2010,08,31,08,02,17.70
2010,08,31,08,03,17.70
2010,08,31,08,04,20.90
2010,08,31,08,05,17.70
2010,08,31,08,06,16.10
2010,08,31,08,07,24.20
2010,08,31,08,08,20.90
2010,08,31,08,09,17.70
2010,08,31,08,10,20.90
2010,08,31,08,11,22.50
2010,08,31,08,12,16.10
2010,08,31,08,13,19.30
2010,08,31,08,14,22.50
2010,08,31,08,15,25.70
2010,08,31,08,16,24.20
2010,08,31,08,17,25.70
2010,08,31,08,18,30.60
2010,08,31,08,19,24.20
2010,08,31,08,20,22.50
2010,08,31,08,21,20.90
2010,08,31,08,22,25.70
2010,08,31,08,23,20.90
2010,08,31,08,24,17.70
2010,08,31,08,25,20.90
2010,08,31,08,26,19.30
2010,08,31,08,27,22.50
2010,08,31,08,28,19.30
2010,08,31,08,29,24.20
2010,08,31,08,30,30.60
2010,08,31,08,31,25.70
2010,08,31,08,32,17.70
2010,08,31,08,33,22.50
2010,08,31,08,34,19.30
2010,08,31,08,35,20.90
2010,08,31,08,36,19.30
2010,08,31,08,37,19.30
2010,08,31,08,38,20.90
2010,08,31,08,39,24.20
2010,08,31,08,40,17.70
2010,08,31,08,41,25.70
2010,08,31,08,42,17.70
2010,08,31,08,43,14.50
2010,08,31,08,44,12.90
2010,08,31,08,45,17.70
2010,08,31,08,46,17.70
2010,08,31,08,47,16.10
2010,08,31,08,48,19.30
2010,08,31,08,49,19.30
2010,08,31,08,50,27.40
2010,08,31,08,51,14.50
2010,08,31,08,52,22.50
2010,08,31,08,53,24.20
2010,08,31,08,54,14.50
2010,08,31,08,55,19.30
2010,08,31,08,56,14.50
2010,08,31,08,57,27.40
2010,08,31,08,58,20.90
2010,08,31,08,59,19.30
2010,08,31,09,00,22.50
2010,08,31,09,01,14.50
2010,08,31,09,02,24.20
2010,08,31,09,03,20.90
2010,08,31,09,04,27.40
2010,08,31,09,05,25.70
2010,08,31,09,06,20.90
2010,08,31,09,07,22.50
2010,08,31,09,08,20.90
2010,08,31,09,09,22.50
2010,08,31,09,10,19.30
2010,08,31,09,11,19.30
2010,08,31,09,12,19.30
2010,08,31,09,13,16.10
2010,08,31,09,14,19.30
2010,08,31,09,15,19.30
2010,08,31,09,16,17.70
2010,08,31,09,17,14.50
2010,08,31,09,18,24.20
2010,08,31,09,19,25.70
2010,08,31,09,20,17.70
2010,08,31,09,21,20.90
2010,08,31,09,22,16.10
2010,08,31,09,23,25.70
2010,08,31,09,24,25.70
2010,08,31,09,25,20.90
2010,08,31,09,26,19.30
2010,08,31,09,27,24.20
2010,08,31,09,28,19.30
2010,08,31,09,29,19.30
2010,08,31,09,30,29.00
2010,08,31,09,31,27.40
2010,08,31,09,32,16.10
2010,08,31,09,33,16.10
2010,08,31,09,34,14.50
2010,08,31,09,35,16.10
2010,08,31,09,36,19.30
2010,08,31,09,37,27.40
2010,08,31,09,38,32.20
2010,08,31,09,39,24.20
2010,08,31,09,40,20.90
2010,08,31,09,41,20.90
2010,08,31,09,42,17.70
2010,08,31,09,43,17.70
2010,08,31,09,44,25.70
2010,08,31,09,45,20.90
2010,08,31,09,46,19.30
2010,08,31,09,47,24.20
2010,08,31,09,48,19.30
2010,08,31,09,49,16.10
2010,08,31,09,50,14.50
2010,08,31,09,51,20.90
2010,08,31,09,52,24.20
2010,08,31,09,53,16.10
2010,08,31,09,54,14.50
2010,08,31,09,55,17.70
2010,08,31,09,56,14.50
2010,08,31,09,57,16.10
2010,08,31,09,58,20.90
2010,08,31,09,59,16.10
2010,08,31,10,00,17.70
2010,08,31,10,01,24.20
2010,08,31,10,02,22.50
2010,08,31,10,03,32.20
2010,08,31,10,04,17.70
2010,08,31,10,05,16.10
2010,08,31,10,06,17.70
2010,08,31,10,07,24.20
2010,08,31,10,08,20.90
2010,08,31,10,09,19.30
2010,08,31,10,10,17.70
2010,08,31,10,11,14.50
2010,08,31,10,12,20.90
2010,08,31,10,13,16.10
2010,08,31,10,14,8.10
2010,08,31,10,15,16.10
2010,08,31,10,16,20.90
2010,08,31,10,17,19.30
2010,08,31,10,18,14.50
2010,08,31,10,19,24.20
2010,08,31,10,20,19.30
2010,08,31,10,21,27.40
2010,08,31,10,22,19.30
2010,08,31,10,23,17.70
2010,08,31,10,24,16.10
2010,08,31,10,25,24.20
2010,08,31,10,26,16.10
2010,08,31,10,27,16.10
2010,08,31,10,28,16.10
2010,08,31,10,29,22.50
2010,08,31,10,30,20.90
2010,08,31,10,31,22.50
2010,08,31,10,32,20.90
2010,08,31,10,33,20.90
2010,08,31,10,34,25.70
2010,08,31,10,35,14.50
2010,08,31,10,36,12.90
2010,08,31,10,37,19.30
2010,08,31,10,38,19.30
2010,08,31,10,39,22.50
2010,08,31,10,40,20.90
2010,08,31,10,41,20.90
2010,08,31,10,42,19.30
2010,08,31,10,43,22.50
2010,08,31,10,44,19.30
2010,08,31,10,45,27.40
2010,08,31,10,46,29.00
2010,08,31,10,47,22.50
2010,08,31,10,48,17.70
2010,08,31,10,49,30.60
2010,08,31,10,50,25.70
2010,08,31,10,51,29.00
2010,08,31,10,52,20.90
2010,08,31,10,53,30.60
2010,08,31,10,54,27.40
2010,08,31,10,55,25.70
2010,08,31,10,56,22.50
2010,08,31,10,57,14.50
2010,08,31,10,58,14.50
2010,08,31,10,59,16.10
2010,08,31,11,00,22.50
2010,08,31,11,01,19.30
2010,08,31,11,02,24.20
2010,08,31,11,03,22.50
2010,08,31,11,04,22.50
2010,08,31,11,05,20.90
2010,08,31,11,06,17.70
2010,08,31,11,07,24.20
2010,08,31,11,08,20.90
2010,08,31,11,09,16.10
2010,08,31,11,10,17.70
2010,08,31,11,11,22.50
2010,08,31,11,12,16.10
2010,08,31,11,13,16.10
2010,08,31,11,14,19.30
2010,08,31,11,15,19.30
2010,08,31,11,16,19.30
2010,08,31,11,17,14.50
2010,08,31,11,18,25.70
2010,08,31,11,19,25.70
2010,08,31,11,20,22.50
2010,08,31,11,21,22.50
2010,08,31,11,22,17.70
2010,08,31,11,23,22.50
2010,08,31,11,24,20.90
2010,08,31,11,25,22.50
2010,08,31,11,26,27.40
2010,08,31,11,27,19.30
2010,08,31,11,28,20.90
2010,08,31,11,29,19.30
2010,08,31,11,30,20.90
2010,08,31,11,31,19.30
2010,08,31,11,32,11.30
2010,08,31,11,33,22.50
2010,08,31,11,34,17.70
2010,08,31,11,35,20.90
2010,08,31,11,36,19.30
2010,08,31,11,37,30.60
2010,08,31,11,38,16.10
2010,08,31,11,39,20.90
2010,08,31,11,40,17.70
2010,08,31,11,41,22.50
2010,08,31,11,42,22.50
2010,08,31,11,43,19.30
2010,08,31,11,44,24.20
2010,08,31,11,45,11.30
2010,08,31,11,46,17.70
2010,08,31,11,47,12.90
2010,08,31,11,48,22.50
2010,08,31,11,49,20.90
2010,08,31,11,50,20.90
2010,08,31,11,51,16.10
2010,08,31,11,52,24.20
2010,08,31,11,53,20.90
2010,08,31,11,54,19.30
2010,08,31,11,55,17.70
2010,08,31,11,56,22.50
2010,08,31,11,57,20.90
2010,08,31,11,58,14.50
2010,08,31,11,59,27.40
2010,08,31,12,00,27.40
2010,08,31,12,01,11.30
2010,08,31,12,02,17.70
2010,08,31,12,03,22.50
2010,08,31,12,04,19.30
2010,08,31,12,05,30.60
2010,08,31,12,06,22.50
2010,08,31,12,07,14.50
2010,08,31,12,08,16.10
2010,08,31,12,09,19.30
2010,08,31,12,10,24.20
2010,08,31,12,11,27.40
2010,08,31,12,12,29.00
2010,08,31,12,13,29.00
2010,08,31,12,14,20.90
2010,08,31,12,15,17.70
2010,08,31,12,16,19.30
2010,08,31,12,17,17.70
2010,08,31,12,18,20.90
2010,08,31,12,19,22.50
2010,08,31,12,20,20.90
2010,08,31,12,21,22.50
2010,08,31,12,22,19.30
2010,08,31,12,23,24.20
2010,08,31,12,24,29.00
2010,08,31,12,25,30.60
2010,08,31,12,26,25.70
2010,08,31,12,27,20.90
2010,08,31,12,28,22.50
2010,08,31,12,29,20.90
2010,08,31,12,30,24.20
2010,08,31,12,31,27.40
2010,08,31,12,32,17.70
2010,08,31,12,33,17.70
2010,08,31,12,34,20.90
2010,08,31,12,35,24.20
2010,08,31,12,36,20.90
2010,08,31,12,37,25.70
2010,08,31,12,38,24.20
2010,08,31,12,39,19.30
2010,08,31,12,40,32.20
2010,08,31,12,41,32.20
2010,08,31,12,42,22.50
2010,08,31,12,43,27.40
2010,08,31,12,44,24.20
2010,08,31,12,45,20.90
2010,08,31,12,46,22.50
2010,08,31,12,47,24.20
2010,08,31,12,48,20.90
2010,08,31,12,49,25.70
2010,08,31,12,50,14.50
2010,08,31,12,51,20.90
2010,08,31,12,52,12.90
2010,08,31,12,53,16.10
2010,08,31,12,54,11.30
2010,08,31,12,55,14.50
2010,08,31,12,56,17.70
2010,08,31,12,57,9.60
2010,08,31,12,58,25.70
2010,08,31,12,59,17.70
2010,08,31,13,00,22.50
2010,08,31,13,01,19.30
2010,08,31,13,02,24.20
2010,08,31,13,03,24.20
2010,08,31,13,04,27.40
2010,08,31,13,05,27.40
2010,08,31,13,06,16.10
2010,08,31,13,07,19.30
2010,08,31,13,08,22.50
2010,08,31,13,09,27.40
2010,08,31,13,10,22.50
2010,08,31,13,11,19.30
2010,08,31,13,12,16.10
2010,08,31,13,13,33.80
2010,08,31,13,14,22.50
2010,08,31,13,15,20.90
2010,08,31,13,16,24.20
2010,08,31,13,17,22.50
2010,08,31,13,18,19.30
2010,08,31,13,19,27.40
2010,08,31,13,20,19.30
2010,08,31,13,21,19.30
2010,08,31,13,22,17.70
2010,08,31,13,23,20.90
2010,08,31,13,24,16.10
2010,08,31,13,25,12.90
2010,08,31,13,26,11.30
2010,08,31,13,27,12.90
2010,08,31,13,28,20.90
2010,08,31,13,29,17.70
2010,08,31,13,30,19.30
2010,08,31,13,31,25.70
2010,08,31,13,32,17.70
2010,08,31,13,33,19.30
2010,08,31,13,34,29.00
2010,08,31,13,35,25.70
2010,08,31,13,36,20.90
2010,08,31,13,37,20.90
2010,08,31,13,38,24.20
2010,08,31,13,39,20.90
2010,08,31,13,40,22.50
2010,08,31,13,41,20.90
2010,08,31,13,42,20.90
2010,08,31,13,43,22.50
2010,08,31,13,44,19.30
2010,08,31,13,45,22.50
2010,08,31,13,46,20.90
2010,08,31,13,47,17.70
2010,08,31,13,48,14.50
2010,08,31,13,49,11.30
2010,08,31,13,50,19.30
2010,08,31,13,51,19.30
2010,08,31,13,52,22.50
2010,08,31,13,53,27.40
2010,08,31,13,54,14.50
2010,08,31,13,55,17.70
2010,08,31,13,56,14.50
2010,08,31,13,57,24.20
2010,08,31,13,58,17.70
2010,08,31,13,59,14.50
2010,08,31,14,00,27.40
2010,08,31,14,01,24.20
2010,08,31,14,02,19.30
2010,08,31,14,03,16.10
2010,08,31,14,04,19.30
2010,08,31,14,05,27.40
2010,08,31,14,06,17.70
2010,08,31,14,07,16.10
2010,08,31,14,08,17.70
2010,08,31,14,09,16.10
2010,08,31,14,10,14.50
2010,08,31,14,11,19.30
2010,08,31,14,12,24.20
2010,08,31,14,13,16.10
2010,08,31,14,14,16.10
2010,08,31,14,15,19.30
2010,08,31,14,16,20.90
2010,08,31,14,17,19.30
2010,08,31,14,18,19.30
2010,08,31,14,19,16.10
2010,08,31,14,20,16.10
2010,08,31,14,21,17.70
2010,08,31,14,22,19.30
2010,08,31,14,23,17.70
2010,08,31,14,24,16.10
2010,08,31,14,25,25.70
2010,08,31,14,26,20.90
2010,08,31,14,27,22.50
2010,08,31,14,28,25.70
2010,08,31,14,29,24.20
2010,08,31,14,30,20.90
2010,08,31,14,31,19.30
2010,08,31,14,32,20.90
2010,08,31,14,33,14.50
2010,08,31,14,34,25.70
2010,08,31,14,35,30.60
2010,08,31,14,36,24.20
2010,08,31,14,37,24.20
2010,08,31,14,38,24.20
2010,08,31,14,39,25.70
2010,08,31,14,40,30.60
2010,08,31,14,41,20.90
2010,08,31,14,42,16.10
2010,08,31,14,43,16.10
2010,08,31,14,44,17.70
2010,08,31,14,45,16.10
2010,08,31,14,46,16.10
2010,08,31,14,47,19.30
2010,08,31,14,48,24.20
2010,08,31,14,49,27.40
2010,08,31,14,50,17.70
2010,08,31,14,51,29.00
2010,08,31,14,52,19.30
2010,08,31,14,53,16.10
2010,08,31,14,54,16.10
2010,08,31,14,55,16.10
2010,08,31,14,56,19.30
2010,08,31,14,57,25.70
2010,08,31,14,58,22.50
2010,08,31,14,59,24.20
2010,08,31,15,00,29.00
2010,08,31,15,01,27.40
2010,08,31,15,02,16.10
2010,08,31,15,03,30.60
2010,08,31,15,04,16.10
2010,08,31,15,05,20.90
2010,08,31,15,06,24.20
2010,08,31,15,07,29.00
2010,08,31,15,08,22.50
2010,08,31,15,09,22.50
2010,08,31,15,10,19.30
2010,08,31,15,11,14.50
2010,08,31,15,12,25.70
2010,08,31,15,13,25.70
2010,08,31,15,14,16.10
2010,08,31,15,15,16.10
2010,08,31,15,16,24.20
2010,08,31,15,17,19.30
2010,08,31,15,18,24.20
2010,08,31,15,19,27.40
2010,08,31,15,20,19.30
2010,08,31,15,21,16.10
2010,08,31,15,22,17.70
2010,08,31,15,23,22.50
2010,08,31,15,24,20.90
2010,08,31,15,25,19.30
2010,08,31,15,26,20.90
2010,08,31,15,27,14.50
2010,08,31,15,28,22.50
2010,08,31,15,29,17.70
2010,08,31,15,30,14.50
2010,08,31,15,31,12.90
2010,08,31,15,32,17.70
2010,08,31,15,33,16.10
2010,08,31,15,34,19.30
2010,08,31,15,35,20.90
2010,08,31,15,36,22.50
2010,08,31,15,37,22.50
2010,08,31,15,38,22.50
2010,08,31,15,39,27.40
2010,08,31,15,40,24.20
2010,08,31,15,41,27.40
2010,08,31,15,42,22.50
2010,08,31,15,43,16.10
2010,08,31,15,44,20.90
2010,08,31,15,45,20.90
2010,08,31,15,46,20.90
2010,08,31,15,47,20.90
2010,08,31,15,48,22.50
2010,08,31,15,49,29.00
2010,08,31,15,50,20.90
2010,08,31,15,51,16.10
2010,08,31,15,52,17.70
2010,08,31,15,53,24.20
2010,08,31,15,54,19.30
2010,08,31,15,55,22.50
2010,08,31,15,56,20.90
2010,08,31,15,57,20.90
2010,08,31,15,58,12.90
2010,08,31,15,59,24.20
2010,08,31,16,00,20.90
2010,08,31,16,01,19.30
2010,08,31,16,02,22.50
2010,08,31,16,03,32.20
2010,08,31,16,04,20.90
2010,08,31,16,05,20.90
2010,08,31,16,06,20.90
2010,08,31,16,07,16.10
2010,08,31,16,08,17.70
2010,08,31,16,09,17.70
2010,08,31,16,10,19.30
2010,08,31,16,11,22.50
2010,08,31,16,12,17.70
2010,08,31,16,13,14.50
2010,08,31,16,14,22.50
2010,08,31,16,15,17.70
2010,08,31,16,16,17.70
2010,08,31,16,17,19.30
2010,08,31,16,18,17.70
2010,08,31,16,19,14.50
2010,08,31,16,20,19.30
2010,08,31,16,21,24.20
2010,08,31,16,22,20.90
2010,08,31,16,23,16.10
2010,08,31,16,24,17.70
2010,08,31,16,25,29.00
2010,08,31,16,26,22.50
2010,08,31,16,27,20.90
2010,08,31,16,28,17.70
2010,08,31,16,29,17.70
2010,08,31,16,30,19.30
2010,08,31,16,31,9.60
2010,08,31,16,32,9.60
2010,08,31,16,33,20.90
2010,08,31,16,34,22.50
2010,08,31,16,35,20.90
2010,08,31,16,36,16.10
2010,08,31,16,37,25.70
2010,08,31,16,38,22.50
2010,08,31,16,39,16.10
2010,08,31,16,40,27.40
2010,08,31,16,41,20.90
2010,08,31,16,42,24.20
2010,08,31,16,43,24.20
2010,08,31,16,44,20.90
2010,08,31,16,45,14.50
2010,08,31,16,46,14.50
2010,08,31,16,47,17.70
2010,08,31,16,48,25.70
2010,08,31,16,49,24.20
2010,08,31,16,50,20.90
2010,08,31,16,51,22.50
2010,08,31,16,52,20.90
2010,08,31,16,53,16.10
2010,08,31,16,54,14.50
2010,08,31,16,55,16.10
2010,08,31,16,56,19.30
2010,08,31,16,57,19.30
2010,08,31,16,58,16.10
2010,08,31,16,59,19.30
2010,08,31,17,00,17.70
2010,08,31,17,01,24.20
2010,08,31,17,02,14.50
2010,08,31,17,03,22.50
2010,08,31,17,04,25.70
2010,08,31,17,05,17.70
2010,08,31,17,06,11.30
2010,08,31,17,07,11.30
2010,08,31,17,08,12.90
2010,08,31,17,09,8.10
2010,08,31,17,10,14.50
2010,08,31,17,11,17.70
2010,08,31,17,12,19.30
2010,08,31,17,13,22.50
2010,08,31,17,14,17.70
2010,08,31,17,15,20.90
2010,08,31,17,16,25.70
2010,08,31,17,17,19.30
2010,08,31,17,18,11.30
2010,08,31,17,19,19.30
2010,08,31,17,20,24.20
2010,08,31,17,21,27.40
2010,08,31,17,22,20.90
2010,08,31,17,23,20.90
2010,08,31,17,24,24.20
2010,08,31,17,25,20.90
2010,08,31,17,26,30.60
2010,08,31,17,27,24.20
2010,08,31,17,28,19.30
2010,08,31,17,29,17.70
2010,08,31,17,30,20.90
2010,08,31,17,31,27.40
2010,08,31,17,32,22.50
2010,08,31,17,33,19.30
2010,08,31,17,34,25.70
2010,08,31,17,35,24.20
2010,08,31,17,36,20.90
2010,08,31,17,37,24.20
2010,08,31,17,38,17.70
2010,08,31,17,39,29.00
2010,08,31,17,40,22.50
2010,08,31,17,41,22.50
2010,08,31,17,42,14.50
2010,08,31,17,43,19.30
2010,08,31,17,44,11.30
2010,08,31,17,45,19.30
2010,08,31,17,46,11.30
2010,08,31,17,47,16.10
2010,08,31,17,48,20.90
2010,08,31,17,49,20.90
2010,08,31,17,50,19.30
2010,08,31,17,51,16.10
2010,08,31,17,52,16.10
2010,08,31,17,53,14.50
2010,08,31,17,54,8.10
2010,08,31,17,55,16.10
2010,08,31,17,56,11.30
2010,08,31,17,57,20.90
2010,08,31,17,58,24.20
2010,08,31,17,59,14.50
2010,08,31,18,00,17.70
2010,08,31,18,01,14.50
2010,08,31,18,02,19.30
2010,08,31,18,03,17.70
2010,08,31,18,04,16.10
2010,08,31,18,05,22.50
2010,08,31,18,06,17.70
2010,08,31,18,07,11.30
2010,08,31,18,08,17.70
2010,08,31,18,09,8.10
2010,08,31,18,10,20.90
2010,08,31,18,11,16.10
2010,08,31,18,12,14.50
2010,08,31,18,13,22.50
2010,08,31,18,14,19.30